Home   Weather   Los Angeles   Past weeks

Flag for USA Past Weather in Los Angeles, California, USA — Yesterday and Last 2 Weeks

Now
46 °F

Clear.


Feels Like: 46 °F
Forecast: 46 / 67 °F
Wind: No wind

Location: Los Angeles / USC Campus Downtown

Current Time: Dec 3, 2016 at 3:52:26 am

Latest Report: Dec 3, 2016 at 2:47 am


Visibility: 10 mi

Pressure: 30.08 "Hg

Humidity: 35%

Dew Point: 20 °F

Location of Los AngelesLocation

Past Weather in Los Angeles — Graph

°F

Los Angeles Temperature Yesterday

Maximum temperature yesterday: 64 °F (at 11:47 am)
Minimum temperature yesterday: 49 °F (at 10:47 pm)
Average temperature yesterday: 57 °F

High & Low Weather Summary for the Past Weeks

 TemperatureHumidityPressure
High78 °F (Nov 24, 1:47 pm)100% (Nov 20, 6:47 pm)30.17 "Hg (Nov 20, 6:47 pm)
Low45 °F (Nov 26, 5:47 am)8% (Nov 18, 11:47 am)29.81 "Hg (Nov 28, 3:47 pm)
Average58 °F58%30.01 "Hg
* Reported Nov 18 2:47 am — Dec 3 2:47 am, Los Angeles, Weather by CustomWeather, © 2016

Note: Actual official high and low records may vary slightly from our data, if they occured in-between our weather recording intervals... More about our weather records

Advertising

Los Angeles Weather History for the Previous 24 Hours

Scroll right to see more
 ConditionsComfort  
Time TempWeatherWind HumidityBarometerVisibility
2:47 am
Sat, Dec 3
46 °FClear.No wind35%30.08 "Hg10 mi
1:47 am48 °FClear.No wind32%30.07 "Hg10 mi
12:47 am50 °FClear.No wind27%30.07 "Hg10 mi
11:47 pm
Fri, Dec 2
49 °FClear.No wind29%30.07 "Hg10 mi
10:47 pm49 °FClear.3 mph31%30.07 "Hg10 mi
9:47 pm51 °FClear.No wind26%30.07 "Hg10 mi
8:47 pm54 °FClear.No wind19%30.05 "Hg10 mi
7:47 pm53 °FClear.No wind21%30.04 "Hg10 mi
6:47 pm58 °FClear.No wind14%30.03 "Hg10 mi
5:47 pm61 °FClear.6 mph10%30.02 "Hg10 mi
4:47 pm61 °FClear.6 mph11%30.01 "Hg10 mi
3:47 pm62 °FSunny.9 mph13%30.01 "Hg10 mi
2:47 pm63 °FSunny.10 mph13%29.98 "Hg10 mi
1:47 pm64 °FSunny.12 mph13%29.97 "Hg10 mi
12:47 pm64 °FSunny.10 mph13%29.98 "Hg10 mi
11:47 am64 °FSunny.5 mph14%29.99 "Hg10 mi
9:47 am62 °FSunny.6 mph16%30.02 "Hg10 mi
8:47 am60 °FSunny.5 mph18%30.01 "Hg10 mi
7:47 am57 °FSunny.3 mph23%30.01 "Hg10 mi
6:47 am55 °FSunny.No wind27%29.99 "Hg10 mi
5:47 am56 °FClear.5 mph26%29.97 "Hg10 mi
4:47 am55 °FClear.3 mph30%29.95 "Hg10 mi
3:47 am55 °FClear.5 mph35%29.94 "Hg10 mi
Weather by CustomWeather, © 2016

See weather overviewHow to use our weather pages